TDRS 9 (27389 NORAD) Tracking and Keplerian Element Data

This shows tracking and keplerian element data for the satellite.

Feedback or suggestion? Click here.




ElementValue
Catalog27389
NameTDRS 9
Epoch Orbit8151
Epoch Day12.7102162
Epoch Year2024
RAAN55.2898
Inclination10.2647
Eccentricity0.0002849
Argument of Perigee147.6171
Mean Anonmoly222.2225
Mean Motion0.98979487
Decay Rate7.1E-07
L11 27389U 02011A 24012.71021620 .00000071 00000+0 00000+0 0 9997
L22 27389 10.2647 55.2898 0002849 147.6171 222.2225 0.98979487 81511



Live tracking and technical data element details for TDRS 9 (NORAD 27389). TDRS 9 can be tracked NOW for your location showing map with azimuth and elevation plus other details from your city location.







IsCatalogInMostPopularTable: catalog: 27389, numindb: 493
Update: records affected: 1



GetName: 27389 TDRS 9

Hit Count: updated at: Mon, 18 May 2026 10:09:52 GMT